{"data":{"norad_id":59945,"intl_designator":"2024-107A","name":"STARLINK-11145 [DTC]","alt_names":[],"object_type":"PAYLOAD","status":"ACTIVE","operator":null,"country":"US","launch_date":"2024-06-05","launch_site_code":"AFETR","launch_vehicle":null,"mission":null,"orbit_class":"UNKNOWN","rcs_meters":null,"size_class":null,"mass_kg":null,"dimensions":null,"purposes":["comms"],"wikipedia_slug":null,"has_3d_model":false,"image_url":null,"decayed_at":null,"tle_current":{"epoch":"2026-05-24T17:21:16.305696Z","epoch_age_seconds":99076,"freshness":"FRESH","line1":"1 59945U 24107A   26144.72310539  .00001506  00000+0  17297-4 0  9994","line2":"2 59945  53.1581 236.7572 0001404  93.1967 266.9212 15.69704100114088","mean_motion":15.697041,"eccentricity":0.0001404,"inclination_deg":53.1581,"raan_deg":236.7572,"arg_perigee_deg":93.1967,"mean_anomaly_deg":266.9212,"bstar":1.7297e-5,"rev_number":11408,"period_min":91.737035024627,"perigee_km":358.79763557325,"apogee_km":360.68963245528,"semimajor_km":6737.8806340143,"source":"CELESTRAK","updated_at":"2026-05-25T13:38:19.126690Z"}}}